When you browse on this site, cookies collect data to enhance your experience and personalize the content and advertising you see.
Visit our Privacy Policy to learn more. By continuing to use the site, you agree to this use of cookies and data.
  • In Latvia
  • List of Countries
  • For 7 days
  • Water Temperature
  • Weather Map
  • Weather Widgets
  • user-avatar
    Login

    Hourly Weather Sydney

    Today, 1 June, Monday

    Time Temperature Precipitation Wind Pressure Humidity
    00:00 +13°C° 0 mm 3 mps 759 mmHg 68%
    01:00 +13°C° 0 mm 3 mps 759 mmHg 70%
    02:00 +13°C° 0 mm 3 mps 758 mmHg 71%
    03:00 +13°C° 0 mm 4 mps 758 mmHg 72%
    04:00 +13°C° 0 mm 4 mps 757 mmHg 74%
    05:00 +13°C° 0 mm 5 mps 757 mmHg 74%
    06:00 +13°C° 0 mm 5 mps 757 mmHg 73%
    07:00 +13°C° 0 mm 6 mps 757 mmHg 73%
    08:00 +15°C° 0 mm 6 mps 756 mmHg 66%
    09:00 +17°C° 0 mm 6 mps 756 mmHg 59%
    10:00 +18°C° 0 mm 7 mps 756 mmHg 53%
    11:00 +20°C° 0 mm 6 mps 755 mmHg 50%
    12:00 +20°C° 0 mm 5 mps 755 mmHg 47%
    13:00 +20°C° 0 mm 4 mps 754 mmHg 44%
    14:00 +20°C° 0 mm 5 mps 754 mmHg 44%
    15:00 +19°C° 0 mm 6 mps 754 mmHg 44%
    16:00 +18°C° 0 mm 7 mps 755 mmHg 44%
    17:00 +16°C° 0 mm 7 mps 755 mmHg 49%
    18:00 +15°C° 0 mm 7 mps 756 mmHg 54%
    19:00 +12°C° 0 mm 7 mps 757 mmHg 58%
    20:00 +11°C° 0 mm 7 mps 757 mmHg 59%
    21:00 +10°C° 0 mm 6 mps 758 mmHg 59%
    22:00 +9°C° 0 mm 6 mps 758 mmHg 60%
    23:00 +9°C° 0 mm 6 mps 758 mmHg 59%

    Tomorrow, 2 June, Tuesday

    Time Temperature Precipitation Wind Pressure Humidity
    00:00 +8°C° 0 mm 6 mps 758 mmHg 59%
    01:00 +8°C° 0 mm 6 mps 758 mmHg 58%
    02:00 +8°C° 0 mm 6 mps 758 mmHg 59%
    03:00 +8°C° 0 mm 6 mps 758 mmHg 60%
    04:00 +7°C° 0 mm 6 mps 758 mmHg 60%
    05:00 +7°C° 0 mm 6 mps 758 mmHg 61%
    06:00 +6°C° 0 mm 7 mps 758 mmHg 62%
    07:00 +6°C° 0 mm 7 mps 759 mmHg 62%
    08:00 +9°C° 0.4 mm 6 mps 759 mmHg 61%
    09:00 +10°C° 0.4 mm 6 mps 759 mmHg 59%
    10:00 +11°C° 0.4 mm 6 mps 760 mmHg 58%
    11:00 +14°C° 0.2 mm 6 mps 759 mmHg 52%
    12:00 +15°C° 0.2 mm 7 mps 759 mmHg 47%
    13:00 +17°C° 0.2 mm 7 mps 759 mmHg 41%
    14:00 +16°C° 0 mm 7 mps 759 mmHg 43%
    15:00 +15°C° 0 mm 7 mps 760 mmHg 45%
    16:00 +15°C° 0 mm 7 mps 761 mmHg 48%
    17:00 +12°C° 0 mm 7 mps 761 mmHg 51%
    18:00 +11°C° 0 mm 7 mps 762 mmHg 55%
    19:00 +10°C° 0 mm 7 mps 762 mmHg 58%
    20:00 +10°C° 0 mm 7 mps 762 mmHg 60%
    21:00 +9°C° 0 mm 7 mps 763 mmHg 61%
    22:00 +9°C° 0 mm 7 mps 763 mmHg 63%
    23:00 +9°C° 0 mm 7 mps 763 mmHg 64%

    Day after tomorrow, 3 June, Wednesday

    Time Temperature Precipitation Wind Pressure Humidity
    00:00 +10°C° 0 mm 7 mps 763 mmHg 65%
    01:00 +10°C° 0 mm 7 mps 763 mmHg 66%
    02:00 +9°C° 0 mm 7 mps 763 mmHg 67%
    03:00 +9°C° 0 mm 7 mps 763 mmHg 68%
    04:00 +9°C° 0 mm 6 mps 763 mmHg 69%
    05:00 +9°C° 0 mm 6 mps 764 mmHg 70%
    06:00 +9°C° 0 mm 6 mps 764 mmHg 71%
    07:00 +8°C° 0 mm 5 mps 765 mmHg 72%
    08:00 +10°C° 0 mm 5 mps 765 mmHg 65%
    09:00 +13°C° 0 mm 5 mps 765 mmHg 57%
    10:00 +15°C° 0 mm 5 mps 766 mmHg 50%
    11:00 +16°C° 0 mm 6 mps 766 mmHg 47%
    12:00 +17°C° 0 mm 7 mps 766 mmHg 44%
    13:00 +17°C° 0 mm 7 mps 766 mmHg 41%
    14:00 +17°C° 0 mm 7 mps 766 mmHg 44%
    15:00 +16°C° 0 mm 8 mps 767 mmHg 48%
    16:00 +15°C° 0 mm 8 mps 767 mmHg 52%
    17:00 +15°C° 0 mm 8 mps 768 mmHg 54%
    18:00 +13°C° 0 mm 8 mps 769 mmHg 56%
    19:00 +12°C° 0 mm 8 mps 769 mmHg 59%
    20:00 +12°C° 0 mm 8 mps 770 mmHg 58%
    21:00 +11°C° 0 mm 8 mps 770 mmHg 58%
    22:00 +10°C° 0 mm 7 mps 771 mmHg 58%
    23:00 +10°C° 0.1 mm 7 mps 771 mmHg 59%

    4 June, Thursday

    Time Temperature Precipitation Wind Pressure Humidity
    00:00 +10°C° 0.1 mm 7 mps 771 mmHg 60%
    01:00 +9°C° 0.1 mm 7 mps 771 mmHg 62%
    02:00 +9°C° 0.1 mm 6 mps 771 mmHg 62%
    03:00 +9°C° 0.1 mm 6 mps 771 mmHg 62%
    04:00 +9°C° 0.1 mm 6 mps 771 mmHg 63%
    05:00 +9°C° 0.1 mm 6 mps 772 mmHg 64%
    06:00 +8°C° 0.1 mm 6 mps 772 mmHg 65%
    07:00 +8°C° 0.1 mm 5 mps 773 mmHg 67%
    08:00 +9°C° 0.1 mm 6 mps 773 mmHg 63%
    09:00 +11°C° 0.1 mm 6 mps 773 mmHg 60%
    10:00 +13°C° 0.1 mm 6 mps 773 mmHg 57%
    11:00 +14°C° 0.1 mm 6 mps 773 mmHg 55%
    12:00 +15°C° 0.1 mm 6 mps 772 mmHg 53%
    13:00 +16°C° 0.1 mm 6 mps 772 mmHg 51%
    14:00 +16°C° 0 mm 6 mps 772 mmHg 53%
    15:00 +15°C° 0 mm 6 mps 772 mmHg 56%
    16:00 +15°C° 0 mm 5 mps 771 mmHg 58%
    17:00 +14°C° 0.1 mm 5 mps 772 mmHg 63%
    18:00 +13°C° 0.1 mm 4 mps 772 mmHg 69%
    19:00 +11°C° 0.1 mm 4 mps 773 mmHg 74%
    20:00 +11°C° 0.1 mm 4 mps 773 mmHg 76%
    21:00 +10°C° 0.1 mm 3 mps 773 mmHg 77%
    22:00 +10°C° 0.1 mm 3 mps 773 mmHg 79%
    23:00 +10°C° 0 mm 3 mps 773 mmHg 78%

    5 June, Friday

    Time Temperature Precipitation Wind Pressure Humidity
    00:00 +9°C° 0 mm 3 mps 773 mmHg 78%
    01:00 +9°C° 0 mm 3 mps 772 mmHg 77%
    02:00 +9°C° 0 mm 3 mps 772 mmHg 78%
    03:00 +8°C° 0 mm 3 mps 772 mmHg 79%
    04:00 +8°C° 0 mm 3 mps 771 mmHg 79%
    05:00 +8°C° 0 mm 3 mps 771 mmHg 79%
    06:00 +8°C° 0 mm 3 mps 772 mmHg 80%
    07:00 +7°C° 0 mm 3 mps 772 mmHg 80%
    08:00 +9°C° 0 mm 3 mps 772 mmHg 72%
    09:00 +11°C° 0 mm 3 mps 772 mmHg 63%
    10:00 +13°C° 0 mm 3 mps 772 mmHg 54%
    11:00 +16°C° 0 mm 2 mps 771 mmHg 51%
    12:00 +18°C° 0 mm 1 mps 770 mmHg 47%
    13:00 +20°C° 0 mm 1 mps 769 mmHg 44%
    14:00 +18°C° 0 mm 2 mps 769 mmHg 46%
    15:00 +18°C° 0 mm 2 mps 769 mmHg 49%
    16:00 +18°C° 0 mm 3 mps 768 mmHg 51%
    17:00 +16°C° 0 mm 3 mps 769 mmHg 61%
    18:00 +14°C° 0 mm 3 mps 769 mmHg 70%
    19:00 +12°C° 0 mm 3 mps 769 mmHg 79%
    20:00 +12°C° 0 mm 3 mps 769 mmHg 81%
    21:00 +11°C° 0 mm 3 mps 769 mmHg 83%
    22:00 +12°C° 0 mm 2 mps 769 mmHg 85%
    23:00 +10°C° 0 mm 2 mps 769 mmHg 85%

    6 June, Saturday

    Time Temperature Precipitation Wind Pressure Humidity
    00:00 +10°C° 0 mm 2 mps 768 mmHg 86%
    01:00 +9°C° 0 mm 2 mps 768 mmHg 87%
    02:00 +9°C° 0 mm 2 mps 768 mmHg 86%
    03:00 +8°C° 0 mm 2 mps 768 mmHg 86%
    04:00 +8°C° 0 mm 2 mps 767 mmHg 85%
    05:00 +8°C° 0 mm 2 mps 767 mmHg 84%
    06:00 +8°C° 0 mm 2 mps 767 mmHg 83%
    07:00 +7°C° 0 mm 2 mps 767 mmHg 82%
    08:00 +9°C° 0 mm 2 mps 767 mmHg 73%
    09:00 +12°C° 0 mm 2 mps 767 mmHg 63%
    10:00 +14°C° 0 mm 2 mps 767 mmHg 53%
    11:00 +16°C° 0 mm 2 mps 766 mmHg 48%
    12:00 +18°C° 0 mm 1 mps 765 mmHg 43%
    13:00 +20°C° 0 mm 1 mps 764 mmHg 37%
    14:00 +20°C° 0 mm 1 mps 764 mmHg 39%
    15:00 +18°C° 0 mm 2 mps 764 mmHg 40%
    16:00 +18°C° 0 mm 2 mps 764 mmHg 42%
    17:00 +16°C° 0 mm 2 mps 764 mmHg 49%
    18:00 +15°C° 0 mm 1 mps 764 mmHg 56%
    19:00 +14°C° 0 mm 1 mps 765 mmHg 63%
    20:00 +13°C° 0 mm 2 mps 765 mmHg 64%
    21:00 +11°C° 0 mm 3 mps 765 mmHg 66%
    22:00 +11°C° 0 mm 4 mps 765 mmHg 67%
    23:00 +10°C° 0 mm 4 mps 765 mmHg 69%
    Show more